owner,sensor,date,latitude,longitude,vertical_datum,sea_water_practical_salinity,qcFlag 
SCCF RECON,ioos:station:SCCF:18:1,2019-09-01T04:00:00Z,26.6955,-81.8138,0.92,0.23,11111222 
SCCF RECON,ioos:station:SCCF:18:1,2019-09-01T05:00:00Z,26.6955,-81.8138,0.86,0.22,11111222 
SCCF RECON,ioos:station:SCCF:18:1,2019-09-01T06:00:00Z,26.6955,-81.8138,0.83,0.22,11111222 
SCCF RECON,ioos:station:SCCF:18:1,2019-09-01T07:00:00Z,26.6955,-81.8138,0.863,0.23,11111222 
SCCF RECON,ioos:station:SCCF:18:1,2019-09-01T08:00:00Z,26.6955,-81.8138,0.91,0.23,11111222 
SCCF RECON,ioos:station:SCCF:18:1,2019-09-01T09:00:00Z,26.6955,-81.8138,0.963,0.23,11111222 
SCCF RECON,ioos:station:SCCF:18:1,2019-09-01T10:00:00Z,26.6955,-81.8138,1.022,0.23,11111222 
SCCF RECON,ioos:station:SCCF:18:1,2019-09-01T11:00:00Z,26.6955,-81.8138,1.07,0.23,11111222 
SCCF RECON,ioos:station:SCCF:18:1,2019-09-01T12:00:00Z,26.6955,-81.8138,1.08,0.23,11111222 
SCCF RECON,ioos:station:SCCF:18:1,2019-09-01T13:00:00Z,26.6955,-81.8138,1.053,0.23,11111222 
SCCF RECON,ioos:station:SCCF:18:1,2019-09-01T14:00:00Z,26.6955,-81.8138,1.01,0.22,11111222 
SCCF RECON,ioos:station:SCCF:18:1,2019-09-01T15:00:00Z,26.6955,-81.8138,0.969,0.23,11111222 
SCCF RECON,ioos:station:SCCF:18:1,2019-09-01T16:00:00Z,26.6955,-81.8138,0.921,0.23,11111222 
SCCF RECON,ioos:station:SCCF:18:1,2019-09-01T17:00:00Z,26.6955,-81.8138,0.88,0.23,11111222 
SCCF RECON,ioos:station:SCCF:18:1,2019-09-01T18:00:00Z,26.6955,-81.8138,0.897,0.23,11111222 
SCCF RECON,ioos:station:SCCF:18:1,2019-09-01T19:00:00Z,26.6955,-81.8138,0.98,0.23,11111222 
SCCF RECON,ioos:station:SCCF:18:1,2019-09-01T20:00:00Z,26.6955,-81.8138,1.03,0.23,11111222 
SCCF RECON,ioos:station:SCCF:18:1,2019-09-01T21:00:00Z,26.6955,-81.8138,1.089,0.23,11111222 
SCCF RECON,ioos:station:SCCF:18:1,2019-09-01T22:00:00Z,26.6955,-81.8138,1.16,0.23,11111222 
SCCF RECON,ioos:station:SCCF:18:1,2019-09-01T23:00:00Z,26.6955,-81.8138,1.22,0.23,11111222 
SCCF RECON,ioos:station:SCCF:18:1,2019-09-02T04:00:00Z,26.6955,-81.8138,1.013,0.24,11111222 
SCCF RECON,ioos:station:SCCF:18:1,2019-09-02T05:00:00Z,26.6955,-81.8138,0.94,0.23,11111222 
SCCF RECON,ioos:station:SCCF:18:1,2019-09-02T06:00:00Z,26.6955,-81.8138,0.884,0.22,11111222 
SCCF RECON,ioos:station:SCCF:18:1,2019-09-02T07:00:00Z,26.6955,-81.8138,0.881,0.23,11111222 
SCCF RECON,ioos:station:SCCF:18:1,2019-09-02T08:00:00Z,26.6955,-81.8138,0.93,0.24,11111222 
SCCF RECON,ioos:station:SCCF:18:1,2019-09-02T09:00:00Z,26.6955,-81.8138,0.978,0.24,11111222 
SCCF RECON,ioos:station:SCCF:18:1,2019-09-02T10:00:00Z,26.6955,-81.8138,1.04,0.24,11111222 
SCCF RECON,ioos:station:SCCF:18:1,2019-09-02T11:00:00Z,26.6955,-81.8138,1.08,0.23,11111222 
SCCF RECON,ioos:station:SCCF:18:1,2019-09-02T12:00:00Z,26.6955,-81.8138,1.092,0.24,11111222 
SCCF RECON,ioos:station:SCCF:18:1,2019-09-02T13:00:00Z,26.6955,-81.8138,1.08,0.24,11111222 
SCCF RECON,ioos:station:SCCF:18:1,2019-09-02T16:00:00Z,26.6955,-81.8138,0.935,0.24,11111222 
SCCF RECON,ioos:station:SCCF:18:1,2019-09-02T17:00:00Z,26.6955,-81.8138,0.88,0.24,11111222 
SCCF RECON,ioos:station:SCCF:18:1,2019-09-02T18:00:00Z,26.6955,-81.8138,0.83,0.24,11111222 
SCCF RECON,ioos:station:SCCF:18:1,2019-09-02T19:00:00Z,26.6955,-81.8138,0.793,0.24,11111222 
SCCF RECON,ioos:station:SCCF:18:1,2019-09-02T20:00:00Z,26.6955,-81.8138,0.83,0.24,11111222 
SCCF RECON,ioos:station:SCCF:18:1,2019-09-02T21:00:00Z,26.6955,-81.8138,0.907,0.24,11111222 
SCCF RECON,ioos:station:SCCF:18:1,2019-09-02T22:00:00Z,26.6955,-81.8138,0.97,0.24,11111222 
SCCF RECON,ioos:station:SCCF:18:1,2019-09-02T23:00:00Z,26.6955,-81.8138,1.035,0.24,11111222 
SCCF RECON,ioos:station:SCCF:18:1,2019-09-03T04:00:00Z,26.6955,-81.8138,0.92,0.23,11111222 
SCCF RECON,ioos:station:SCCF:18:1,2019-09-03T05:00:00Z,26.6955,-81.8138,0.881,0.24,11111222 
SCCF RECON,ioos:station:SCCF:18:1,2019-09-03T06:00:00Z,26.6955,-81.8138,0.822,0.23,11111222 
SCCF RECON,ioos:station:SCCF:18:1,2019-09-03T07:00:00Z,26.6955,-81.8138,0.791,0.24,11111222 
SCCF RECON,ioos:station:SCCF:18:1,2019-09-03T08:00:00Z,26.6955,-81.8138,0.791,0.24,11111222 
SCCF RECON,ioos:station:SCCF:18:1,2019-09-03T09:00:00Z,26.6955,-81.8138,0.82,0.25,11111222 
SCCF RECON,ioos:station:SCCF:18:1,2019-09-03T10:00:00Z,26.6955,-81.8138,0.862,0.25,11111222 
SCCF RECON,ioos:station:SCCF:18:1,2019-09-03T11:00:00Z,26.6955,-81.8138,0.94,0.24,11111222 
SCCF RECON,ioos:station:SCCF:18:1,2019-09-03T12:00:00Z,26.6955,-81.8138,0.987,0.25,11111222 
SCCF RECON,ioos:station:SCCF:18:1,2019-09-03T14:00:00Z,26.6955,-81.8138,0.98,0.24,11111222 
SCCF RECON,ioos:station:SCCF:18:1,2019-09-03T15:00:00Z,26.6955,-81.8138,0.94,0.24,11111222 
SCCF RECON,ioos:station:SCCF:18:1,2019-09-03T16:00:00Z,26.6955,-81.8138,0.89,0.24,11111222 
SCCF RECON,ioos:station:SCCF:18:1,2019-09-03T17:00:00Z,26.6955,-81.8138,0.84,0.25,11111222 
SCCF RECON,ioos:station:SCCF:18:1,2019-09-03T18:00:00Z,26.6955,-81.8138,0.81,0.25,11111222 
SCCF RECON,ioos:station:SCCF:18:1,2019-09-03T19:00:00Z,26.6955,-81.8138,0.77,0.25,11111222 
SCCF RECON,ioos:station:SCCF:18:1,2019-09-03T20:00:00Z,26.6955,-81.8138,0.7,0.25,11111222 
SCCF RECON,ioos:station:SCCF:18:1,2019-09-03T21:00:00Z,26.6955,-81.8138,0.75,0.25,11111222 
SCCF RECON,ioos:station:SCCF:18:1,2019-09-03T22:00:00Z,26.6955,-81.8138,0.82,0.25,11111222 
SCCF RECON,ioos:station:SCCF:18:1,2019-09-03T23:00:00Z,26.6955,-81.8138,0.89,0.25,11111222 
SCCF RECON,ioos:station:SCCF:18:1,2019-09-04T04:00:00Z,26.6955,-81.8138,0.931,0.25,11111222 
SCCF RECON,ioos:station:SCCF:18:1,2019-09-04T05:00:00Z,26.6955,-81.8138,0.91,0.24,11111222 
SCCF RECON,ioos:station:SCCF:18:1,2019-09-04T06:00:00Z,26.6955,-81.8138,0.86,0.23,11111222 
SCCF RECON,ioos:station:SCCF:18:1,2019-09-04T07:00:00Z,26.6955,-81.8138,0.828,0.23,11111222 
SCCF RECON,ioos:station:SCCF:18:1,2019-09-04T08:00:00Z,26.6955,-81.8138,0.83,0.24,11111222 
SCCF RECON,ioos:station:SCCF:18:1,2019-09-04T09:00:00Z,26.6955,-81.8138,0.857,0.24,11111222 
SCCF RECON,ioos:station:SCCF:18:1,2019-09-04T10:00:00Z,26.6955,-81.8138,0.912,0.25,11111222 
SCCF RECON,ioos:station:SCCF:18:1,2019-09-04T11:00:00Z,26.6955,-81.8138,0.98,0.24,11111222 
SCCF RECON,ioos:station:SCCF:18:1,2019-09-04T12:00:00Z,26.6955,-81.8138,1.03,0.25,11111222 
SCCF RECON,ioos:station:SCCF:18:1,2019-09-04T13:00:00Z,26.6955,-81.8138,1.081,0.25,11111222 
SCCF RECON,ioos:station:SCCF:18:1,2019-09-04T14:00:00Z,26.6955,-81.8138,1.117,0.25,11111222 
SCCF RECON,ioos:station:SCCF:18:1,2019-09-04T15:00:00Z,26.6955,-81.8138,1.103,0.24,11111222 
SCCF RECON,ioos:station:SCCF:18:1,2019-09-04T16:00:00Z,26.6955,-81.8138,1.074,0.25,11111222 
SCCF RECON,ioos:station:SCCF:18:1,2019-09-04T17:00:00Z,26.6955,-81.8138,1.032,0.25,11111222 
SCCF RECON,ioos:station:SCCF:18:1,2019-09-04T18:00:00Z,26.6955,-81.8138,1.002,0.25,11111222 
SCCF RECON,ioos:station:SCCF:18:1,2019-09-04T19:00:00Z,26.6955,-81.8138,0.96,0.25,11111222 
SCCF RECON,ioos:station:SCCF:18:1,2019-09-04T20:00:00Z,26.6955,-81.8138,0.9,0.25,11111222 
SCCF RECON,ioos:station:SCCF:18:1,2019-09-04T21:00:00Z,26.6955,-81.8138,0.857,0.25,11111222 
SCCF RECON,ioos:station:SCCF:18:1,2019-09-04T22:00:00Z,26.6955,-81.8138,0.864,0.25,11111222 
SCCF RECON,ioos:station:SCCF:18:1,2019-09-04T23:00:00Z,26.6955,-81.8138,0.9,0.25,11111222 
SCCF RECON,ioos:station:SCCF:18:1,2019-09-05T04:00:00Z,26.6955,-81.8138,1.05,0.25,11111222 
SCCF RECON,ioos:station:SCCF:18:1,2019-09-05T05:00:00Z,26.6955,-81.8138,1.02,0.25,11111222 
SCCF RECON,ioos:station:SCCF:18:1,2019-09-05T06:00:00Z,26.6955,-81.8138,0.972,0.25,11111222 
SCCF RECON,ioos:station:SCCF:18:1,2019-09-05T07:00:00Z,26.6955,-81.8138,0.95,0.24,11111222 
SCCF RECON,ioos:station:SCCF:18:1,2019-09-05T08:00:00Z,26.6955,-81.8138,0.941,0.25,11111222 
SCCF RECON,ioos:station:SCCF:18:1,2019-09-05T09:00:00Z,26.6955,-81.8138,0.95,0.25,11111222 
SCCF RECON,ioos:station:SCCF:18:1,2019-09-05T11:00:00Z,26.6955,-81.8138,1.05,0.25,11111222 
SCCF RECON,ioos:station:SCCF:18:1,2019-09-05T12:00:00Z,26.6955,-81.8138,1.11,0.25,11111222 
SCCF RECON,ioos:station:SCCF:18:1,2019-09-05T13:00:00Z,26.6955,-81.8138,1.16,0.25,11111222 
SCCF RECON,ioos:station:SCCF:18:1,2019-09-05T14:00:00Z,26.6955,-81.8138,1.19,0.25,11111222 
SCCF RECON,ioos:station:SCCF:18:1,2019-09-05T15:00:00Z,26.6955,-81.8138,1.21,0.25,11111222 
SCCF RECON,ioos:station:SCCF:18:1,2019-09-05T16:00:00Z,26.6955,-81.8138,1.178,0.25,11111222 
SCCF RECON,ioos:station:SCCF:18:1,2019-09-05T17:00:00Z,26.6955,-81.8138,1.117,0.25,11111222 
SCCF RECON,ioos:station:SCCF:18:1,2019-09-05T18:00:00Z,26.6955,-81.8138,1.068,0.25,11111222 
SCCF RECON,ioos:station:SCCF:18:1,2019-09-05T19:00:00Z,26.6955,-81.8138,1.019,0.25,11111222 
SCCF RECON,ioos:station:SCCF:18:1,2019-09-05T21:00:00Z,26.6955,-81.8138,0.899,0.24,11111222 
SCCF RECON,ioos:station:SCCF:18:1,2019-09-05T22:00:00Z,26.6955,-81.8138,0.85,0.25,11111222 
SCCF RECON,ioos:station:SCCF:18:1,2019-09-05T23:00:00Z,26.6955,-81.8138,0.851,0.25,11111222 
SCCF RECON,ioos:station:SCCF:18:1,2019-09-06T04:00:00Z,26.6955,-81.8138,1.029,0.25,11111222 
SCCF RECON,ioos:station:SCCF:18:1,2019-09-06T05:00:00Z,26.6955,-81.8138,1.05,0.25,11111222 
SCCF RECON,ioos:station:SCCF:18:1,2019-09-06T07:00:00Z,26.6955,-81.8138,1.038,0.25,11111222 
SCCF RECON,ioos:station:SCCF:18:1,2019-09-06T08:00:00Z,26.6955,-81.8138,1.01,0.25,11111222 
SCCF RECON,ioos:station:SCCF:18:1,2019-09-06T09:00:00Z,26.6955,-81.8138,0.987,0.25,11111222 
SCCF RECON,ioos:station:SCCF:18:1,2019-09-06T10:00:00Z,26.6955,-81.8138,1.0,0.25,11111222 
SCCF RECON,ioos:station:SCCF:18:1,2019-09-06T11:00:00Z,26.6955,-81.8138,1.041,0.25,11111222 
SCCF RECON,ioos:station:SCCF:18:1,2019-09-06T12:00:00Z,26.6955,-81.8138,1.089,0.25,11111222 
SCCF RECON,ioos:station:SCCF:18:1,2019-09-06T13:00:00Z,26.6955,-81.8138,1.14,0.25,11111222 
SCCF RECON,ioos:station:SCCF:18:1,2019-09-06T14:00:00Z,26.6955,-81.8138,1.19,0.25,11111222 
SCCF RECON,ioos:station:SCCF:18:1,2019-09-06T15:00:00Z,26.6955,-81.8138,1.21,0.25,11111222 
SCCF RECON,ioos:station:SCCF:18:1,2019-09-06T16:00:00Z,26.6955,-81.8138,1.216,0.25,11111222 
SCCF RECON,ioos:station:SCCF:18:1,2019-09-06T17:00:00Z,26.6955,-81.8138,1.185,0.25,11111222 
SCCF RECON,ioos:station:SCCF:18:1,2019-09-06T18:00:00Z,26.6955,-81.8138,1.11,0.25,11111222 
SCCF RECON,ioos:station:SCCF:18:1,2019-09-06T19:00:00Z,26.6955,-81.8138,1.07,0.25,11111222 
SCCF RECON,ioos:station:SCCF:18:1,2019-09-06T20:00:00Z,26.6955,-81.8138,1.03,0.25,11111222 
SCCF RECON,ioos:station:SCCF:18:1,2019-09-06T21:00:00Z,26.6955,-81.8138,0.957,0.25,11111222 
SCCF RECON,ioos:station:SCCF:18:1,2019-09-06T22:00:00Z,26.6955,-81.8138,0.918,0.25,11111222 
SCCF RECON,ioos:station:SCCF:18:1,2019-09-06T23:00:00Z,26.6955,-81.8138,0.84,0.25,11111222 
SCCF RECON,ioos:station:SCCF:18:1,2019-09-07T04:00:00Z,26.6955,-81.8138,0.98,0.25,11111222 
SCCF RECON,ioos:station:SCCF:18:1,2019-09-07T05:00:00Z,26.6955,-81.8138,1.03,0.25,11111222 
SCCF RECON,ioos:station:SCCF:18:1,2019-09-07T06:00:00Z,26.6955,-81.8138,1.07,0.25,11111222 
SCCF RECON,ioos:station:SCCF:18:1,2019-09-07T07:00:00Z,26.6955,-81.8138,1.094,0.25,11111222 
SCCF RECON,ioos:station:SCCF:18:1,2019-09-07T08:00:00Z,26.6955,-81.8138,1.12,0.25,11111222 
SCCF RECON,ioos:station:SCCF:18:1,2019-09-07T09:00:00Z,26.6955,-81.8138,1.123,0.25,11111222 
SCCF RECON,ioos:station:SCCF:18:1,2019-09-07T10:00:00Z,26.6955,-81.8138,1.111,0.25,11111222 
SCCF RECON,ioos:station:SCCF:18:1,2019-09-07T11:00:00Z,26.6955,-81.8138,1.12,0.25,11111222 
SCCF RECON,ioos:station:SCCF:18:1,2019-09-07T12:00:00Z,26.6955,-81.8138,1.13,0.25,11111222 
SCCF RECON,ioos:station:SCCF:18:1,2019-09-07T13:00:00Z,26.6955,-81.8138,1.163,0.25,11111222 
SCCF RECON,ioos:station:SCCF:18:1,2019-09-07T14:00:00Z,26.6955,-81.8138,1.207,0.25,11111222 
SCCF RECON,ioos:station:SCCF:18:1,2019-09-07T15:00:00Z,26.6955,-81.8138,1.224,0.25,11111222 
SCCF RECON,ioos:station:SCCF:18:1,2019-09-07T16:00:00Z,26.6955,-81.8138,1.24,0.25,11111222 
SCCF RECON,ioos:station:SCCF:18:1,2019-09-07T17:00:00Z,26.6955,-81.8138,1.249,0.25,11111222 
SCCF RECON,ioos:station:SCCF:18:1,2019-09-07T18:00:00Z,26.6955,-81.8138,1.2,0.25,11111222 
SCCF RECON,ioos:station:SCCF:18:1,2019-09-07T19:00:00Z,26.6955,-81.8138,1.126,0.25,11111222 
SCCF RECON,ioos:station:SCCF:18:1,2019-09-07T20:00:00Z,26.6955,-81.8138,1.07,0.25,11111222 
SCCF RECON,ioos:station:SCCF:18:1,2019-09-07T21:00:00Z,26.6955,-81.8138,1.02,0.25,11111222 
SCCF RECON,ioos:station:SCCF:18:1,2019-09-07T22:00:00Z,26.6955,-81.8138,0.96,0.25,11111222 
SCCF RECON,ioos:station:SCCF:18:1,2019-09-07T23:00:00Z,26.6955,-81.8138,0.91,0.25,11111222 
SCCF RECON,ioos:station:SCCF:18:1,2019-09-08T04:00:00Z,26.6955,-81.8138,0.939,0.25,11111222 
SCCF RECON,ioos:station:SCCF:18:1,2019-09-08T05:00:00Z,26.6955,-81.8138,0.97,0.25,11111222 
SCCF RECON,ioos:station:SCCF:18:1,2019-09-08T06:00:00Z,26.6955,-81.8138,1.02,0.25,11111222 
SCCF RECON,ioos:station:SCCF:18:1,2019-09-08T07:00:00Z,26.6955,-81.8138,1.07,0.25,11111222 
SCCF RECON,ioos:station:SCCF:18:1,2019-09-08T08:00:00Z,26.6955,-81.8138,1.11,0.25,11111222 
SCCF RECON,ioos:station:SCCF:18:1,2019-09-08T09:00:00Z,26.6955,-81.8138,1.12,0.26,11111222 
SCCF RECON,ioos:station:SCCF:18:1,2019-09-08T10:00:00Z,26.6955,-81.8138,1.129,0.25,11111222 
SCCF RECON,ioos:station:SCCF:18:1,2019-09-08T11:00:00Z,26.6955,-81.8138,1.1,0.25,11111222 
SCCF RECON,ioos:station:SCCF:18:1,2019-09-08T13:00:00Z,26.6955,-81.8138,1.11,0.25,11111222 
SCCF RECON,ioos:station:SCCF:18:1,2019-09-08T14:00:00Z,26.6955,-81.8138,1.146,0.25,11111222 
SCCF RECON,ioos:station:SCCF:18:1,2019-09-08T15:00:00Z,26.6955,-81.8138,1.19,0.25,11111222 
SCCF RECON,ioos:station:SCCF:18:1,2019-09-08T16:00:00Z,26.6955,-81.8138,1.24,0.25,11111222 
SCCF RECON,ioos:station:SCCF:18:1,2019-09-08T17:00:00Z,26.6955,-81.8138,1.266,0.25,11111222 
SCCF RECON,ioos:station:SCCF:18:1,2019-09-08T18:00:00Z,26.6955,-81.8138,1.289,0.25,11111222 
SCCF RECON,ioos:station:SCCF:18:1,2019-09-08T19:00:00Z,26.6955,-81.8138,1.26,0.25,11111222 
SCCF RECON,ioos:station:SCCF:18:1,2019-09-08T20:00:00Z,26.6955,-81.8138,1.199,0.25,11111222 
SCCF RECON,ioos:station:SCCF:18:1,2019-09-08T21:00:00Z,26.6955,-81.8138,1.159,0.25,11111222 
SCCF RECON,ioos:station:SCCF:18:1,2019-09-08T22:00:00Z,26.6955,-81.8138,1.09,0.25,11111222 
SCCF RECON,ioos:station:SCCF:18:1,2019-09-08T23:00:00Z,26.6955,-81.8138,1.04,0.25,11111222 
SCCF RECON,ioos:station:SCCF:18:1,2019-09-09T04:00:00Z,26.6955,-81.8138,0.94,0.26,11111222 
SCCF RECON,ioos:station:SCCF:18:1,2019-09-09T05:00:00Z,26.6955,-81.8138,1.0,0.26,11111222 
SCCF RECON,ioos:station:SCCF:18:1,2019-09-09T06:00:00Z,26.6955,-81.8138,1.04,0.25,11111222 
SCCF RECON,ioos:station:SCCF:18:1,2019-09-09T07:00:00Z,26.6955,-81.8138,1.08,0.25,11111222 
SCCF RECON,ioos:station:SCCF:18:1,2019-09-09T08:00:00Z,26.6955,-81.8138,1.121,0.25,11111222 
SCCF RECON,ioos:station:SCCF:18:1,2019-09-09T09:00:00Z,26.6955,-81.8138,1.131,0.26,11111222 
SCCF RECON,ioos:station:SCCF:18:1,2019-09-09T10:00:00Z,26.6955,-81.8138,1.13,0.25,11111222 
SCCF RECON,ioos:station:SCCF:18:1,2019-09-09T11:00:00Z,26.6955,-81.8138,1.12,0.25,11111222 
SCCF RECON,ioos:station:SCCF:18:1,2019-09-09T12:00:00Z,26.6955,-81.8138,1.073,0.25,11111222 
SCCF RECON,ioos:station:SCCF:18:1,2019-09-09T13:00:00Z,26.6955,-81.8138,1.085,0.26,11111222 
SCCF RECON,ioos:station:SCCF:18:1,2019-09-09T14:00:00Z,26.6955,-81.8138,1.07,0.25,11111222 
SCCF RECON,ioos:station:SCCF:18:1,2019-09-09T15:00:00Z,26.6955,-81.8138,1.12,0.25,11111222 
SCCF RECON,ioos:station:SCCF:18:1,2019-09-09T16:00:00Z,26.6955,-81.8138,1.16,0.25,11111222 
SCCF RECON,ioos:station:SCCF:18:1,2019-09-09T17:00:00Z,26.6955,-81.8138,1.212,0.25,11111222 
SCCF RECON,ioos:station:SCCF:18:1,2019-09-09T18:00:00Z,26.6955,-81.8138,1.249,0.25,11111222 
SCCF RECON,ioos:station:SCCF:18:1,2019-09-09T22:00:00Z,26.6955,-81.8138,1.1,0.25,11111222 
SCCF RECON,ioos:station:SCCF:18:1,2019-09-09T23:00:00Z,26.6955,-81.8138,1.032,0.25,11111222 
SCCF RECON,ioos:station:SCCF:18:1,2019-09-10T04:00:00Z,26.6955,-81.8138,0.908,0.25,11111222 
SCCF RECON,ioos:station:SCCF:18:1,2019-09-10T05:00:00Z,26.6955,-81.8138,0.95,0.26,11111222 
SCCF RECON,ioos:station:SCCF:18:1,2019-09-10T06:00:00Z,26.6955,-81.8138,1.0,0.25,11111222 
SCCF RECON,ioos:station:SCCF:18:1,2019-09-10T07:00:00Z,26.6955,-81.8138,1.028,0.25,11111222 
SCCF RECON,ioos:station:SCCF:18:1,2019-09-10T08:00:00Z,26.6955,-81.8138,1.07,0.25,11111222 
SCCF RECON,ioos:station:SCCF:18:1,2019-09-10T09:00:00Z,26.6955,-81.8138,1.1,0.26,11111222 
SCCF RECON,ioos:station:SCCF:18:1,2019-09-10T10:00:00Z,26.6955,-81.8138,1.088,0.25,11111222 
SCCF RECON,ioos:station:SCCF:18:1,2019-09-10T11:00:00Z,26.6955,-81.8138,1.077,0.25,11111222 
SCCF RECON,ioos:station:SCCF:18:1,2019-09-10T12:00:00Z,26.6955,-81.8138,1.059,0.25,11111222 
SCCF RECON,ioos:station:SCCF:18:1,2019-09-10T13:00:00Z,26.6955,-81.8138,1.037,0.25,11111222 
SCCF RECON,ioos:station:SCCF:18:1,2019-09-10T14:00:00Z,26.6955,-81.8138,1.033,0.25,11111222 
SCCF RECON,ioos:station:SCCF:18:1,2019-09-10T15:00:00Z,26.6955,-81.8138,1.03,0.25,11111222 
SCCF RECON,ioos:station:SCCF:18:1,2019-09-10T16:00:00Z,26.6955,-81.8138,1.088,0.26,11111222 
SCCF RECON,ioos:station:SCCF:18:1,2019-09-10T17:00:00Z,26.6955,-81.8138,1.14,0.25,11111222 
SCCF RECON,ioos:station:SCCF:18:1,2019-09-10T18:00:00Z,26.6955,-81.8138,1.182,0.25,11111222 
SCCF RECON,ioos:station:SCCF:18:1,2019-09-10T19:00:00Z,26.6955,-81.8138,1.22,0.25,11111222 
SCCF RECON,ioos:station:SCCF:18:1,2019-09-10T20:00:00Z,26.6955,-81.8138,1.21,0.25,11111222 
SCCF RECON,ioos:station:SCCF:18:1,2019-09-10T22:00:00Z,26.6955,-81.8138,1.1,0.26,11111222 
SCCF RECON,ioos:station:SCCF:18:1,2019-09-10T23:00:00Z,26.6955,-81.8138,1.02,0.26,11111222 
SCCF RECON,ioos:station:SCCF:18:1,2019-09-11T04:00:00Z,26.6955,-81.8138,0.78,0.26,11111222 
SCCF RECON,ioos:station:SCCF:18:1,2019-09-11T05:00:00Z,26.6955,-81.8138,0.802,0.26,11111222 
SCCF RECON,ioos:station:SCCF:18:1,2019-09-11T06:00:00Z,26.6955,-81.8138,0.84,0.26,11111222 
SCCF RECON,ioos:station:SCCF:18:1,2019-09-11T07:00:00Z,26.6955,-81.8138,0.879,0.26,11111222 
SCCF RECON,ioos:station:SCCF:18:1,2019-09-11T08:00:00Z,26.6955,-81.8138,0.911,0.26,11111222 
SCCF RECON,ioos:station:SCCF:18:1,2019-09-11T09:00:00Z,26.6955,-81.8138,0.95,0.26,11111222 
SCCF RECON,ioos:station:SCCF:18:1,2019-09-11T10:00:00Z,26.6955,-81.8138,0.95,0.26,11111222 
SCCF RECON,ioos:station:SCCF:18:1,2019-09-11T11:00:00Z,26.6955,-81.8138,0.93,0.25,11111222 
SCCF RECON,ioos:station:SCCF:18:1,2019-09-11T12:00:00Z,26.6955,-81.8138,0.91,0.25,11111222 
SCCF RECON,ioos:station:SCCF:18:1,2019-09-11T13:00:00Z,26.6955,-81.8138,0.873,0.26,11111222 
SCCF RECON,ioos:station:SCCF:18:1,2019-09-11T15:00:00Z,26.6955,-81.8138,0.86,0.26,11111222 
SCCF RECON,ioos:station:SCCF:18:1,2019-09-11T16:00:00Z,26.6955,-81.8138,0.9,0.26,11111222 
SCCF RECON,ioos:station:SCCF:18:1,2019-09-11T17:00:00Z,26.6955,-81.8138,0.94,0.25,11111222 
SCCF RECON,ioos:station:SCCF:18:1,2019-09-11T18:00:00Z,26.6955,-81.8138,0.952,0.25,11111222 
SCCF RECON,ioos:station:SCCF:18:1,2019-09-11T19:00:00Z,26.6955,-81.8138,1.02,0.25,11111222 
SCCF RECON,ioos:station:SCCF:18:1,2019-09-11T20:00:00Z,26.6955,-81.8138,1.06,0.25,11111222 
SCCF RECON,ioos:station:SCCF:18:1,2019-09-11T21:00:00Z,26.6955,-81.8138,1.03,0.25,11111222 
SCCF RECON,ioos:station:SCCF:18:1,2019-09-11T22:00:00Z,26.6955,-81.8138,0.989,0.25,11111222 
SCCF RECON,ioos:station:SCCF:18:1,2019-09-11T23:00:00Z,26.6955,-81.8138,0.923,0.25,11111222 
SCCF RECON,ioos:station:SCCF:18:1,2019-09-12T04:00:00Z,26.6955,-81.8138,0.699,0.25,11111222 
SCCF RECON,ioos:station:SCCF:18:1,2019-09-12T05:00:00Z,26.6955,-81.8138,0.68,0.25,11111222 
SCCF RECON,ioos:station:SCCF:18:1,2019-09-12T06:00:00Z,26.6955,-81.8138,0.69,0.26,11111222 
SCCF RECON,ioos:station:SCCF:18:1,2019-09-12T07:00:00Z,26.6955,-81.8138,0.72,0.25,11111222 
SCCF RECON,ioos:station:SCCF:18:1,2019-09-12T08:00:00Z,26.6955,-81.8138,0.761,0.25,11111222 
SCCF RECON,ioos:station:SCCF:18:1,2019-09-12T09:00:00Z,26.6955,-81.8138,0.81,0.25,11111222 
SCCF RECON,ioos:station:SCCF:18:1,2019-09-12T10:00:00Z,26.6955,-81.8138,0.86,0.26,11111222 
SCCF RECON,ioos:station:SCCF:18:1,2019-09-12T11:00:00Z,26.6955,-81.8138,0.87,0.25,11111222 
SCCF RECON,ioos:station:SCCF:18:1,2019-09-12T13:00:00Z,26.6955,-81.8138,0.84,0.25,11111222 
SCCF RECON,ioos:station:SCCF:18:1,2019-09-12T14:00:00Z,26.6955,-81.8138,0.82,0.25,11111222 
SCCF RECON,ioos:station:SCCF:18:1,2019-09-12T15:00:00Z,26.6955,-81.8138,0.785,0.25,11111222 
SCCF RECON,ioos:station:SCCF:18:1,2019-09-12T16:00:00Z,26.6955,-81.8138,0.79,0.25,11111222 
SCCF RECON,ioos:station:SCCF:18:1,2019-09-13T20:00:00Z,26.6955,-81.8138,0.816,0.27,11111222 
SCCF RECON,ioos:station:SCCF:18:1,2019-09-13T21:00:00Z,26.6955,-81.8138,0.86,0.27,11111222 
SCCF RECON,ioos:station:SCCF:18:1,2019-09-13T22:00:00Z,26.6955,-81.8138,0.9,0.26,11111222 
SCCF RECON,ioos:station:SCCF:18:1,2019-09-13T23:00:00Z,26.6955,-81.8138,0.895,0.26,11111222 
SCCF RECON,ioos:station:SCCF:18:1,2019-09-14T04:00:00Z,26.6955,-81.8138,0.651,0.25,11111222 
SCCF RECON,ioos:station:SCCF:18:1,2019-09-14T05:00:00Z,26.6955,-81.8138,0.63,0.25,11111222 
SCCF RECON,ioos:station:SCCF:18:1,2019-09-14T06:00:00Z,26.6955,-81.8138,0.62,0.25,11111222 
SCCF RECON,ioos:station:SCCF:18:1,2019-09-14T07:00:00Z,26.6955,-81.8138,0.634,0.26,11111222 
SCCF RECON,ioos:station:SCCF:18:1,2019-09-14T08:00:00Z,26.6955,-81.8138,0.69,0.26,11111222 
SCCF RECON,ioos:station:SCCF:18:1,2019-09-14T09:00:00Z,26.6955,-81.8138,0.711,0.26,11111222 
SCCF RECON,ioos:station:SCCF:18:1,2019-09-14T10:00:00Z,26.6955,-81.8138,0.76,0.26,11111222 
SCCF RECON,ioos:station:SCCF:18:1,2019-09-14T11:00:00Z,26.6955,-81.8138,0.82,0.26,11111222 
SCCF RECON,ioos:station:SCCF:18:1,2019-09-14T12:00:00Z,26.6955,-81.8138,0.831,0.26,11111222 
SCCF RECON,ioos:station:SCCF:18:1,2019-09-14T13:00:00Z,26.6955,-81.8138,0.82,0.25,11111222 
SCCF RECON,ioos:station:SCCF:18:1,2019-09-14T14:00:00Z,26.6955,-81.8138,0.767,0.25,11111222 
SCCF RECON,ioos:station:SCCF:18:1,2019-09-14T16:00:00Z,26.6955,-81.8138,0.71,0.25,11111222 
SCCF RECON,ioos:station:SCCF:18:1,2019-09-14T17:00:00Z,26.6955,-81.8138,0.713,0.26,11111222 
SCCF RECON,ioos:station:SCCF:18:1,2019-09-14T18:00:00Z,26.6955,-81.8138,0.767,0.25,11111222 
SCCF RECON,ioos:station:SCCF:18:1,2019-09-14T19:00:00Z,26.6955,-81.8138,0.82,0.25,11111222 
SCCF RECON,ioos:station:SCCF:18:1,2019-09-14T20:00:00Z,26.6955,-81.8138,0.82,0.27,11111222 
SCCF RECON,ioos:station:SCCF:18:1,2019-09-14T21:00:00Z,26.6955,-81.8138,0.89,0.26,11111222 
SCCF RECON,ioos:station:SCCF:18:1,2019-09-14T22:00:00Z,26.6955,-81.8138,0.95,0.26,11111222 
SCCF RECON,ioos:station:SCCF:18:1,2019-09-14T23:00:00Z,26.6955,-81.8138,0.975,0.26,11111222 
SCCF RECON,ioos:station:SCCF:18:1,2019-09-15T04:00:00Z,26.6955,-81.8138,0.798,0.26,11111222 
SCCF RECON,ioos:station:SCCF:18:1,2019-09-15T05:00:00Z,26.6955,-81.8138,0.738,0.25,11111222 
SCCF RECON,ioos:station:SCCF:18:1,2019-09-15T06:00:00Z,26.6955,-81.8138,0.75,0.26,11111222 
SCCF RECON,ioos:station:SCCF:18:1,2019-09-15T07:00:00Z,26.6955,-81.8138,0.762,0.27,11111222 
SCCF RECON,ioos:station:SCCF:18:1,2019-09-15T08:00:00Z,26.6955,-81.8138,0.829,0.26,11111222 
SCCF RECON,ioos:station:SCCF:18:1,2019-09-15T09:00:00Z,26.6955,-81.8138,0.85,0.29,11111222 
SCCF RECON,ioos:station:SCCF:18:1,2019-09-15T10:00:00Z,26.6955,-81.8138,0.89,0.3,11111222 
SCCF RECON,ioos:station:SCCF:18:1,2019-09-15T11:00:00Z,26.6955,-81.8138,0.95,0.3,11111222 
SCCF RECON,ioos:station:SCCF:18:1,2019-09-15T12:00:00Z,26.6955,-81.8138,0.997,0.28,11111222 
SCCF RECON,ioos:station:SCCF:18:1,2019-09-15T13:00:00Z,26.6955,-81.8138,0.947,0.26,11111222 
SCCF RECON,ioos:station:SCCF:18:1,2019-09-15T14:00:00Z,26.6955,-81.8138,0.889,0.26,11111222 
SCCF RECON,ioos:station:SCCF:18:1,2019-09-15T15:00:00Z,26.6955,-81.8138,0.851,0.27,11111222 
SCCF RECON,ioos:station:SCCF:18:1,2019-09-15T16:00:00Z,26.6955,-81.8138,0.823,0.27,11111222 
SCCF RECON,ioos:station:SCCF:18:1,2019-09-15T17:00:00Z,26.6955,-81.8138,0.818,0.27,11111222 
SCCF RECON,ioos:station:SCCF:18:1,2019-09-15T18:00:00Z,26.6955,-81.8138,0.879,0.27,11111222 